Station Historical Data
Daily Summary for January 25, 2012 Units:  English    Metric   Both
« Previous Day
Next Day »
Daily Weekly Monthly Yearly Custom
  High: Low: Average:
Temperature: 68.4 °F 42.5 °F 54.4 °F
Dew Point: 54.2 °F 33.8 °F 43.2 °F
Humidity: 78% 51% 66%
Wind Speed: 14.0mph 0.0mph 5.1mph
Wind Gust: 16.0mph - -
Wind- - East
Pressure: 30.26 in 29.93 in -
Precipitation: 0.00 in    
Historical Graphs
 
 
Tabular Data for January 25, 2012
Time Temperature Dew Point Pressure Wind Wind Speed Wind Gust Humidity Rainfall Rate (Hourly) Conditions
00:00 45.5 °F 35.2 °F 30.26 in ENE 1.0 mph 3.0 mph 67% 0.00 in
00:05 45.4 °F 35.1 °F 30.25 in NE 3.0 mph 5.0 mph 67% 0.00 in
00:10 45.1 °F 35.2 °F 30.25 in NNE 2.0 mph 3.0 mph 68% 0.00 in
00:16 44.7 °F 34.8 °F 30.25 in NE 2.0 mph 4.0 mph 68% 0.00 in
00:21 44.5 °F 35.0 °F 30.25 in NE 2.0 mph 4.0 mph 69% 0.00 in
00:26 44.4 °F 34.9 °F 30.25 in NNE 3.0 mph 4.0 mph 69% 0.00 in
00:31 44.4 °F 34.9 °F 30.25 in NE 5.0 mph 5.0 mph 69% 0.00 in
00:36 44.3 °F 34.8 °F 30.25 in NNE 4.0 mph 4.0 mph 69% 0.00 in
00:41 44.3 °F 34.8 °F 30.24 in NNE 6.0 mph 6.0 mph 69% 0.00 in
00:46 44.5 °F 35.0 °F 30.24 in NE 6.0 mph 6.0 mph 69% 0.00 in
00:51 44.7 °F 35.2 °F 30.24 in NE 4.0 mph 9.0 mph 69% 0.00 in
00:56 44.6 °F 35.1 °F 30.23 in NNE 6.0 mph 8.0 mph 69% 0.00 in
01:01 44.6 °F 35.1 °F 30.23 in ENE 5.0 mph 8.0 mph 69% 0.00 in
01:06 44.6 °F 35.1 °F 30.23 in NE 6.0 mph 8.0 mph 69% 0.00 in
01:11 44.7 °F 34.8 °F 30.23 in NNE 3.0 mph 9.0 mph 68% 0.00 in
01:16 44.6 °F 35.1 °F 30.23 in ENE 4.0 mph 8.0 mph 69% 0.00 in
01:21 44.5 °F 35.0 °F 30.22 in NE 8.0 mph 8.0 mph 69% 0.00 in
01:26 44.7 °F 34.8 °F 30.21 in NNE 8.0 mph 8.0 mph 68% 0.00 in
01:31 44.6 °F 34.7 °F 30.21 in NNE 7.0 mph 11.0 mph 68% 0.00 in
01:36 44.4 °F 34.9 °F 30.22 in NE 6.0 mph 7.0 mph 69% 0.00 in
01:41 44.4 °F 34.5 °F 30.22 in NE 3.0 mph 6.0 mph 68% 0.00 in
01:46 44.4 °F 34.5 °F 30.21 in NE 3.0 mph 7.0 mph 68% 0.00 in
01:51 44.3 °F 34.8 °F 30.21 in NE 5.0 mph 6.0 mph 69% 0.00 in
01:56 44.3 °F 34.4 °F 30.21 in NE 4.0 mph 8.0 mph 68% 0.00 in
02:01 44.3 °F 34.4 °F 30.21 in NE 4.0 mph 7.0 mph 68% 0.00 in
02:06 44.1 °F 34.6 °F 30.21 in NNE 4.0 mph 8.0 mph 69% 0.00 in
02:11 44.0 °F 34.5 °F 30.21 in NE 4.0 mph 6.0 mph 69% 0.00 in
02:16 43.9 °F 34.4 °F 30.21 in NNE 4.0 mph 8.0 mph 69% 0.00 in
02:21 43.8 °F 34.3 °F 30.20 in NNE 3.0 mph 7.0 mph 69% 0.00 in
02:26 43.7 °F 34.6 °F 30.20 in NE 3.0 mph 6.0 mph 70% 0.00 in
02:31 43.7 °F 34.6 °F 30.20 in NE 4.0 mph 7.0 mph 70% 0.00 in
02:36 43.7 °F 34.6 °F 30.20 in NNE 3.0 mph 6.0 mph 70% 0.00 in
02:42 44.0 °F 34.5 °F 30.21 in ENE 1.0 mph 5.0 mph 69% 0.00 in
02:47 44.0 °F 34.5 °F 30.20 in NE 4.0 mph 4.0 mph 69% 0.00 in
02:52 44.1 °F 34.2 °F 30.20 in ENE 5.0 mph 6.0 mph 68% 0.00 in
02:57 44.2 °F 34.3 °F 30.20 in NE 3.0 mph 6.0 mph 68% 0.00 in
03:02 44.1 °F 34.2 °F 30.20 in NE 8.0 mph 8.0 mph 68% 0.00 in
03:07 44.1 °F 34.2 °F 30.20 in NE 6.0 mph 8.0 mph 68% 0.00 in
03:12 43.9 °F 34.4 °F 30.20 in NE 4.0 mph 7.0 mph 69% 0.00 in
03:17 43.8 °F 34.3 °F 30.20 in ENE 5.0 mph 6.0 mph 69% 0.00 in
03:22 43.7 °F 34.2 °F 30.19 in NE 7.0 mph 9.0 mph 69% 0.00 in
03:27 43.6 °F 34.1 °F 30.19 in NE 4.0 mph 7.0 mph 69% 0.00 in
03:32 43.4 °F 33.9 °F 30.19 in NE 4.0 mph 8.0 mph 69% 0.00 in
03:37 43.2 °F 34.1 °F 30.19 in ENE 2.0 mph 5.0 mph 70% 0.00 in
03:42 43.1 °F 34.0 °F 30.19 in NE 5.0 mph 8.0 mph 70% 0.00 in
03:47 43.1 °F 34.0 °F 30.19 in ENE 5.0 mph 7.0 mph 70% 0.00 in
03:52 43.1 °F 34.0 °F 30.19 in NE 6.0 mph 6.0 mph 70% 0.00 in
03:57 43.1 °F 34.0 °F 30.19 in NE 6.0 mph 6.0 mph 70% 0.00 in
04:02 42.9 °F 33.8 °F 30.19 in NE 3.0 mph 6.0 mph 70% 0.00 in
04:07 42.7 °F 34.0 °F 30.18 in NE 5.0 mph 6.0 mph 71% 0.00 in
04:12 42.5 °F 34.1 °F 30.18 in ENE 4.0 mph 5.0 mph 72% 0.00 in
04:17 42.6 °F 33.9 °F 30.18 in NE 2.0 mph 7.0 mph 71% 0.00 in
04:22 42.6 °F 34.2 °F 30.18 in NE 4.0 mph 6.0 mph 72% 0.00 in
04:27 42.6 °F 34.2 °F 30.18 in NE 5.0 mph 6.0 mph 72% 0.00 in
04:32 42.6 °F 34.2 °F 30.18 in NE 6.0 mph 6.0 mph 72% 0.00 in
04:37 42.6 °F 34.6 °F 30.18 in NE 5.0 mph 5.0 mph 73% 0.00 in
04:42 42.7 °F 34.3 °F 30.18 in NE 6.0 mph 6.0 mph 72% 0.00 in
04:47 42.8 °F 34.4 °F 30.17 in NE 3.0 mph 6.0 mph 72% 0.00 in
04:52 42.8 °F 34.4 °F 30.18 in NE 3.0 mph 5.0 mph 72% 0.00 in
04:57 42.8 °F 34.4 °F 30.18 in NE 4.0 mph 6.0 mph 72% 0.00 in
05:02 42.8 °F 34.4 °F 30.18 in NE 3.0 mph 6.0 mph 72% 0.00 in
05:07 42.8 °F 34.8 °F 30.18 in NNE 2.0 mph 6.0 mph 73% 0.00 in
05:12 42.9 °F 34.8 °F 30.18 in NE 8.0 mph 8.0 mph 73% 0.00 in
05:17 42.9 °F 34.8 °F 30.17 in NE 6.0 mph 8.0 mph 73% 0.00 in
05:22 43.0 °F 34.6 °F 30.16 in NE 4.0 mph 9.0 mph 72% 0.00 in
05:27 43.1 °F 34.7 °F 30.16 in ENE 6.0 mph 9.0 mph 72% 0.00 in
05:32 43.3 °F 35.2 °F 30.16 in ENE 3.0 mph 9.0 mph 73% 0.00 in
05:37 43.3 °F 35.2 °F 30.16 in NNE 6.0 mph 8.0 mph 73% 0.00 in
05:42 43.4 °F 35.3 °F 30.17 in ENE 2.0 mph 4.0 mph 73% 0.00 in
05:47 43.4 °F 35.3 °F 30.18 in North 1.0 mph 2.0 mph 73% 0.00 in
05:52 43.4 °F 35.0 °F 30.18 in NNW 1.0 mph 3.0 mph 72% 0.00 in
05:57 43.4 °F 35.3 °F 30.18 in NNW 1.0 mph 2.0 mph 73% 0.00 in
06:02 43.3 °F 35.2 °F 30.19 in Calm   1.0 mph 73% 0.00 in
06:08 43.3 °F 35.2 °F 30.19 in Calm   1.0 mph 73% 0.00 in
06:13 43.3 °F 35.2 °F 30.20 in SSW 2.0 mph 2.0 mph 73% 0.00 in
06:18 43.2 °F 35.5 °F 30.20 in ESE 1.0 mph 1.0 mph 74% 0.00 in
06:23 43.1 °F 36.1 °F 30.19 in NE 2.0 mph 3.0 mph 76% 0.00 in
06:28 43.0 °F 36.0 °F 30.19 in NE 1.0 mph 4.0 mph 76% 0.00 in
06:33 43.1 °F 36.1 °F 30.19 in ENE 2.0 mph 2.0 mph 76% 0.00 in
06:38 43.6 °F 35.5 °F 30.20 in NE 2.0 mph 3.0 mph 73% 0.00 in
06:43 43.9 °F 35.8 °F 30.19 in NNE 3.0 mph 5.0 mph 73% 0.00 in
06:48 43.9 °F 36.2 °F 30.19 in NNE 2.0 mph 3.0 mph 74% 0.00 in
06:53 43.9 °F 36.2 °F 30.19 in NE 3.0 mph 3.0 mph 74% 0.00 in
06:58 44.2 °F 35.4 °F 30.19 in NE 2.0 mph 5.0 mph 71% 0.00 in
07:03 44.4 °F 35.6 °F 30.20 in NE 1.0 mph 3.0 mph 71% 0.00 in
07:08 44.5 °F 36.0 °F 30.21 in SSE 3.0 mph 3.0 mph 72% 0.00 in
07:13 44.3 °F 36.5 °F 30.21 in SSE 1.0 mph 2.0 mph 74% 0.00 in
07:18 44.1 °F 37.0 °F 30.21 in SE 1.0 mph 3.0 mph 76% 0.00 in
07:23 44.0 °F 36.3 °F 30.21 in East 2.0 mph 2.0 mph 74% 0.00 in
07:28 44.0 °F 37.3 °F 30.20 in Calm   2.0 mph 77% 0.00 in
07:33 43.9 °F 37.5 °F 30.20 in East 2.0 mph 2.0 mph 78% 0.00 in
07:38 43.8 °F 37.1 °F 30.19 in NE 4.0 mph 4.0 mph 77% 0.00 in
07:43 43.9 °F 36.8 °F 30.18 in NE 3.0 mph 4.0 mph 76% 0.00 in
07:48 43.9 °F 36.8 °F 30.18 in East 3.0 mph 6.0 mph 76% 0.00 in
07:53 44.0 °F 36.6 °F 30.19 in East 3.0 mph 6.0 mph 75% 0.00 in
07:58 43.9 °F 36.5 °F 30.18 in ESE 3.0 mph 6.0 mph 75% 0.00 in
08:03 43.9 °F 36.5 °F 30.18 in NE 4.0 mph 5.0 mph 75% 0.00 in
08:08 43.9 °F 36.2 °F 30.17 in NE 3.0 mph 6.0 mph 74% 0.00 in
08:13 44.1 °F 36.4 °F 30.17 in NE 6.0 mph 9.0 mph 74% 0.00 in
08:18 44.1 °F 36.4 °F 30.16 in NNE 4.0 mph 5.0 mph 74% 0.00 in
08:23 44.1 °F 36.7 °F 30.16 in ENE 3.0 mph 6.0 mph 75% 0.00 in
08:28 44.3 °F 36.5 °F 30.15 in ENE 3.0 mph 8.0 mph 74% 0.00 in
08:33 44.5 °F 36.7 °F 30.16 in ESE 6.0 mph 8.0 mph 74% 0.00 in
08:38 44.6 °F 36.8 °F 30.15 in ENE 3.0 mph 9.0 mph 74% 0.00 in
08:43 44.7 °F 36.6 °F 30.15 in NE 7.0 mph 7.0 mph 73% 0.00 in
08:48 44.9 °F 36.8 °F 30.14 in East 7.0 mph 9.0 mph 73% 0.00 in
08:53 45.1 °F 37.0 °F 30.14 in East 5.0 mph 11.0 mph 73% 0.00 in
08:58 45.3 °F 36.8 °F 30.15 in ENE 3.0 mph 6.0 mph 72% 0.00 in
09:03 46.2 °F 37.3 °F 30.15 in East 5.0 mph 9.0 mph 71% 0.00 in
09:09 47.1 °F 38.2 °F 30.14 in ENE 4.0 mph 10.0 mph 71% 0.00 in
09:14 47.4 °F 37.8 °F 30.14 in East 7.0 mph 11.0 mph 69% 0.00 in
09:19 47.9 °F 37.5 °F 30.14 in East 8.0 mph 9.0 mph 67% 0.00 in
09:24 48.5 °F 37.7 °F 30.14 in ESE 4.0 mph 11.0 mph 66% 0.00 in
09:29 49.0 °F 37.8 °F 30.14 in East 7.0 mph 10.0 mph 65% 0.00 in
09:34 49.0 °F 38.2 °F 30.14 in East 7.0 mph 10.0 mph 66% 0.00 in
09:39 49.3 °F 38.4 °F 30.14 in East 8.0 mph 9.0 mph 66% 0.00 in
09:44 49.4 °F 38.5 °F 30.14 in ESE 8.0 mph 9.0 mph 66% 0.00 in
09:49 49.6 °F 38.3 °F 30.14 in East 6.0 mph 9.0 mph 65% 0.00 in
09:54 49.6 °F 37.5 °F 30.14 in SE 6.0 mph 12.0 mph 63% 0.00 in
09:59 49.9 °F 37.8 °F 30.14 in ESE 6.0 mph 9.0 mph 63% 0.00 in
10:04 50.2 °F 38.1 °F 30.14 in SE 6.0 mph 12.0 mph 63% 0.00 in
10:09 50.3 °F 38.6 °F 30.14 in ESE 9.0 mph 10.0 mph 64% 0.00 in
10:14 50.3 °F 37.8 °F 30.13 in ESE 5.0 mph 14.0 mph 62% 0.00 in
10:19 50.6 °F 38.5 °F 30.15 in ESE 6.0 mph 11.0 mph 63% 0.00 in
10:24 50.8 °F 38.3 °F 30.14 in ESE 11.0 mph 11.0 mph 62% 0.00 in
10:29 50.9 °F 37.5 °F 30.14 in ESE 6.0 mph 13.0 mph 60% 0.00 in
10:34 51.1 °F 37.7 °F 30.14 in East 7.0 mph 11.0 mph 60% 0.00 in
10:39 51.1 °F 37.3 °F 30.14 in ESE 6.0 mph 12.0 mph 59% 0.00 in
10:42 51.2 °F 37.4 °F 30.14 in East 8.0 mph 11.0 mph 59% 0.00 in
10:47 51.2 °F 37.8 °F 30.14 in East 7.0 mph 10.0 mph 60% 0.00 in
10:52 51.4 °F 37.1 °F 30.14 in SE 6.0 mph 11.0 mph 58% 0.00 in
10:57 51.4 °F 37.6 °F 30.14 in ESE 6.0 mph 12.0 mph 59% 0.00 in
11:02 51.6 °F 37.3 °F 30.15 in ESE 9.0 mph 10.0 mph 58% 0.00 in
11:07 51.8 °F 37.5 °F 30.15 in ESE 7.0 mph 9.0 mph 58% 0.00 in
11:12 52.0 °F 37.7 °F 30.15 in ESE 4.0 mph 8.0 mph 58% 0.00 in
11:17 52.2 °F 37.9 °F 30.15 in ESE 7.0 mph 10.0 mph 58% 0.00 in
11:22 52.4 °F 38.5 °F 30.15 in ESE 4.0 mph 10.0 mph 59% 0.00 in
11:27 52.5 °F 37.7 °F 30.15 in ESE 5.0 mph 7.0 mph 57% 0.00 in
11:32 52.7 °F 37.9 °F 30.14 in ESE 4.0 mph 7.0 mph 57% 0.00 in
11:37 52.7 °F 37.9 °F 30.14 in SE 6.0 mph 6.0 mph 57% 0.00 in
11:42 52.8 °F 38.5 °F 30.15 in ESE 3.0 mph 6.0 mph 58% 0.00 in
11:47 52.9 °F 39.0 °F 30.14 in SE 2.0 mph 4.0 mph 59% 0.00 in
11:52 53.0 °F 38.6 °F 30.14 in ESE 2.0 mph 3.0 mph 58% 0.00 in
11:57 53.2 °F 40.1 °F 30.14 in Calm   3.0 mph 61% 0.00 in
12:02 53.5 °F 38.7 °F 30.14 in SE 5.0 mph 6.0 mph 57% 0.00 in
12:07 53.7 °F 38.4 °F 30.14 in SSE 6.0 mph 6.0 mph 56% 0.00 in
12:12 53.8 °F 38.5 °F 30.14 in SE 2.0 mph 4.0 mph 56% 0.00 in
12:17 54.0 °F 38.7 °F 30.13 in SE 1.0 mph 3.0 mph 56% 0.00 in
12:22 54.2 °F 39.3 °F 30.13 in SE 2.0 mph 3.0 mph 57% 0.00 in
12:27 54.7 °F 40.7 °F 30.13 in ESE 3.0 mph 4.0 mph 59% 0.00 in
12:32 55.2 °F 39.3 °F 30.12 in SE 5.0 mph 6.0 mph 55% 0.00 in
12:37 55.9 °F 40.0 °F 30.12 in ESE 3.0 mph 7.0 mph 55% 0.00 in
12:42 56.3 °F 39.4 °F 30.12 in SE 4.0 mph 5.0 mph 53% 0.00 in
12:47 57.1 °F 40.2 °F 30.11 in SE 3.0 mph 6.0 mph 53% 0.00 in
12:52 57.5 °F 41.0 °F 30.10 in SSE 6.0 mph 6.0 mph 54% 0.00 in
12:57 58.2 °F 41.2 °F 30.10 in SE 6.0 mph 10.0 mph 53% 0.00 in
13:02 58.9 °F 40.8 °F 30.09 in SSE 6.0 mph 10.0 mph 51% 0.00 in
13:07 59.5 °F 41.4 °F 30.09 in SSE 5.0 mph 7.0 mph 51% 0.00 in
13:12 60.4 °F 42.2 °F 30.09 in ESE 12.0 mph 12.0 mph 51% 0.00 in
13:17 60.9 °F 42.7 °F 30.09 in ESE 6.0 mph 10.0 mph 51% 0.00 in
13:23 61.3 °F 44.0 °F 30.08 in ESE 8.0 mph 13.0 mph 53% 0.00 in
13:28 61.6 °F 43.8 °F 30.07 in SSE 10.0 mph 12.0 mph 52% 0.00 in
13:33 61.9 °F 44.1 °F 30.07 in SE 11.0 mph 14.0 mph 52% 0.00 in
13:38 62.2 °F 44.4 °F 30.06 in East 10.0 mph 11.0 mph 52% 0.00 in
13:43 62.6 °F 45.2 °F 30.06 in SE 13.0 mph 14.0 mph 53% 0.00 in
13:48 62.8 °F 44.9 °F 30.06 in South 7.0 mph 11.0 mph 52% 0.00 in
13:53 63.0 °F 45.6 °F 30.06 in SE 8.0 mph 16.0 mph 53% 0.00 in
13:58 63.0 °F 45.6 °F 30.05 in ESE 9.0 mph 12.0 mph 53% 0.00 in
14:03 63.0 °F 45.6 °F 30.05 in SE 7.0 mph 12.0 mph 53% 0.00 in
14:08 62.9 °F 45.5 °F 30.05 in ESE 10.0 mph 12.0 mph 53% 0.00 in
14:13 63.5 °F 46.1 °F 30.05 in SE 14.0 mph 14.0 mph 53% 0.00 in
14:18 63.5 °F 45.6 °F 30.05 in SE 8.0 mph 13.0 mph 52% 0.00 in
14:23 63.8 °F 46.4 °F 30.05 in East 12.0 mph 12.0 mph 53% 0.00 in
14:28 64.3 °F 46.3 °F 30.05 in SE 9.0 mph 9.0 mph 52% 0.00 in
14:33 64.6 °F 47.1 °F 30.04 in SE 6.0 mph 12.0 mph 53% 0.00 in
14:38 64.8 °F 47.3 °F 30.04 in SE 8.0 mph 11.0 mph 53% 0.00 in
14:43 64.9 °F 47.9 °F 30.03 in SSE 8.0 mph 12.0 mph 54% 0.00 in
14:48 65.3 °F 48.2 °F 30.03 in SE 8.0 mph 8.0 mph 54% 0.00 in
14:53 65.7 °F 48.6 °F 30.03 in SE 6.0 mph 9.0 mph 54% 0.00 in
14:58 66.2 °F 49.6 °F 30.03 in SE 9.0 mph 10.0 mph 55% 0.00 in
15:03 66.5 °F 49.8 °F 30.02 in ESE 7.0 mph 12.0 mph 55% 0.00 in
15:08 66.8 °F 50.6 °F 30.02 in ESE 9.0 mph 12.0 mph 56% 0.00 in
15:13 66.8 °F 50.1 °F 30.02 in ESE 12.0 mph 16.0 mph 55% 0.00 in
15:18 66.6 °F 50.9 °F 30.02 in SE 8.0 mph 12.0 mph 57% 0.00 in
15:23 66.7 °F 50.5 °F 30.02 in SE 7.0 mph 13.0 mph 56% 0.00 in
15:29 67.1 °F 50.9 °F 30.02 in SSE 6.0 mph 12.0 mph 56% 0.00 in
15:34 66.9 °F 51.2 °F 30.02 in ESE 6.0 mph 12.0 mph 57% 0.00 in
15:39 66.7 °F 51.0 °F 30.02 in SE 5.0 mph 12.0 mph 57% 0.00 in
15:44 66.8 °F 52.0 °F 30.02 in SE 2.0 mph 6.0 mph 59% 0.00 in
15:49 67.3 °F 52.5 °F 30.02 in ESE 4.0 mph 7.0 mph 59% 0.00 in
15:54 68.1 °F 51.8 °F 30.01 in ESE 7.0 mph 9.0 mph 56% 0.00 in
15:59 68.4 °F 52.1 °F 30.01 in ESE 7.0 mph 11.0 mph 56% 0.00 in
16:04 68.2 °F 51.9 °F 30.01 in East 11.0 mph 13.0 mph 56% 0.00 in
16:09 67.5 °F 52.2 °F 30.01 in ESE 10.0 mph 12.0 mph 58% 0.00 in
16:14 66.9 °F 51.7 °F 30.00 in SSE 8.0 mph 11.0 mph 58% 0.00 in
16:19 66.7 °F 51.5 °F 30.00 in SE 8.0 mph 10.0 mph 58% 0.00 in
16:24 66.7 °F 52.4 °F 30.00 in SE 4.0 mph 7.0 mph 60% 0.00 in
16:29 66.8 °F 52.0 °F 30.00 in SE 6.0 mph 8.0 mph 59% 0.00 in
16:34 66.9 °F 52.1 °F 30.00 in SE 6.0 mph 8.0 mph 59% 0.00 in
16:39 66.9 °F 52.6 °F 30.00 in SE 7.0 mph 8.0 mph 60% 0.00 in
16:44 66.9 °F 53.0 °F 29.99 in SE 4.0 mph 7.0 mph 61% 0.00 in
16:49 67.1 °F 53.2 °F 29.99 in SE 4.0 mph 6.0 mph 61% 0.00 in
16:54 67.5 °F 52.7 °F 29.99 in SE 6.0 mph 7.0 mph 59% 0.00 in
17:00 67.8 °F 53.4 °F 29.99 in SE 6.0 mph 10.0 mph 60% 0.00 in
17:04 67.9 °F 53.1 °F 29.99 in SE 9.0 mph 9.0 mph 59% 0.00 in
17:10 68.0 °F 53.2 °F 29.99 in SE 6.0 mph 8.0 mph 59% 0.00 in
17:15 68.0 °F 53.2 °F 29.99 in SSE 8.0 mph 10.0 mph 59% 0.00 in
17:19 68.0 °F 53.6 °F 29.99 in SSE 6.0 mph 8.0 mph 60% 0.00 in
17:25 67.8 °F 53.9 °F 29.99 in SE 9.0 mph 10.0 mph 61% 0.00 in
17:30 67.3 °F 53.8 °F 29.99 in SE 6.0 mph 8.0 mph 62% 0.00 in
17:35 66.8 °F 53.8 °F 29.99 in SE 3.0 mph 7.0 mph 63% 0.00 in
17:40 66.4 °F 53.9 °F 29.99 in SE 4.0 mph 7.0 mph 64% 0.00 in
17:45 66.2 °F 53.7 °F 29.99 in SE 4.0 mph 6.0 mph 64% 0.00 in
17:50 66.1 °F 54.0 °F 29.99 in SE 2.0 mph 6.0 mph 65% 0.00 in
17:55 65.9 °F 53.8 °F 29.99 in SE 2.0 mph 3.0 mph 65% 0.00 in
18:00 65.6 °F 54.0 °F 29.99 in SE 3.0 mph 4.0 mph 66% 0.00 in
18:05 65.3 °F 53.7 °F 29.99 in SE 3.0 mph 5.0 mph 66% 0.00 in
18:10 64.8 °F 53.6 °F 29.98 in SE 2.0 mph 4.0 mph 67% 0.00 in
18:15 64.7 °F 53.5 °F 29.98 in SSE 2.0 mph 5.0 mph 67% 0.00 in
18:20 64.7 °F 53.1 °F 29.98 in SE 2.0 mph 3.0 mph 66% 0.00 in
18:25 64.9 °F 53.3 °F 29.98 in ESE 3.0 mph 5.0 mph 66% 0.00 in
18:30 64.9 °F 53.3 °F 29.98 in SE 5.0 mph 5.0 mph 66% 0.00 in
18:35 64.9 °F 53.3 °F 29.98 in SE 3.0 mph 4.0 mph 66% 0.00 in
18:40 64.8 °F 53.2 °F 29.98 in East 4.0 mph 4.0 mph 66% 0.00 in
18:45 64.6 °F 53.4 °F 29.99 in ESE 2.0 mph 4.0 mph 67% 0.00 in
18:50 64.5 °F 53.3 °F 29.98 in ESE 4.0 mph 6.0 mph 67% 0.00 in
18:55 64.3 °F 53.5 °F 29.99 in ESE 4.0 mph 5.0 mph 68% 0.00 in
19:00 64.3 °F 53.5 °F 29.98 in ESE 4.0 mph 5.0 mph 68% 0.00 in
19:06 64.3 °F 53.5 °F 29.99 in ESE 4.0 mph 5.0 mph 68% 0.00 in
19:11 64.1 °F 53.7 °F 29.99 in ESE 4.0 mph 4.0 mph 69% 0.00 in
19:16 64.0 °F 54.0 °F 29.99 in SE 4.0 mph 5.0 mph 70% 0.00 in
19:21 63.9 °F 53.9 °F 29.99 in SE 3.0 mph 6.0 mph 70% 0.00 in
19:26 63.8 °F 54.2 °F 29.99 in ESE 4.0 mph 6.0 mph 71% 0.00 in
19:31 63.7 °F 54.1 °F 29.99 in East 4.0 mph 6.0 mph 71% 0.00 in
19:36 63.5 °F 53.9 °F 29.99 in East 2.0 mph 4.0 mph 71% 0.00 in
19:41 63.4 °F 53.8 °F 29.99 in ESE 3.0 mph 5.0 mph 71% 0.00 in
19:46 63.3 °F 54.1 °F 29.99 in ESE 2.0 mph 4.0 mph 72% 0.00 in
19:51 63.1 °F 53.9 °F 29.99 in ESE 4.0 mph 4.0 mph 72% 0.00 in
19:56 63.1 °F 53.9 °F 29.99 in ESE 5.0 mph 5.0 mph 72% 0.00 in
20:01 63.1 °F 53.9 °F 29.98 in East 4.0 mph 5.0 mph 72% 0.00 in
20:06 62.9 °F 53.8 °F 29.98 in ESE 4.0 mph 5.0 mph 72% 0.00 in
20:11 62.9 °F 53.8 °F 29.98 in ESE 3.0 mph 5.0 mph 72% 0.00 in
20:16 62.9 °F 53.8 °F 29.98 in ESE 4.0 mph 6.0 mph 72% 0.00 in
20:21 62.9 °F 53.8 °F 29.98 in East 4.0 mph 6.0 mph 72% 0.00 in
20:26 62.9 °F 53.8 °F 29.98 in ESE 8.0 mph 8.0 mph 72% 0.00 in
20:31 62.9 °F 53.4 °F 29.98 in ESE 5.0 mph 6.0 mph 71% 0.00 in
20:36 63.0 °F 53.5 °F 29.98 in ESE 5.0 mph 8.0 mph 71% 0.00 in
20:41 63.0 °F 53.5 °F 29.99 in ESE 8.0 mph 9.0 mph 71% 0.00 in
20:46 63.1 °F 53.2 °F 29.99 in ESE 9.0 mph 9.0 mph 70% 0.00 in
20:51 63.2 °F 53.3 °F 29.98 in ESE 8.0 mph 9.0 mph 70% 0.00 in
20:56 63.2 °F 53.3 °F 29.98 in ESE 5.0 mph 8.0 mph 70% 0.00 in
21:01 63.0 °F 53.1 °F 29.98 in ESE 5.0 mph 9.0 mph 70% 0.00 in
21:06 62.9 °F 53.0 °F 29.98 in ESE 5.0 mph 8.0 mph 70% 0.00 in
21:11 62.8 °F 52.9 °F 29.98 in ESE 6.0 mph 8.0 mph 70% 0.00 in
21:16 62.8 °F 52.9 °F 29.98 in ESE 6.0 mph 6.0 mph 70% 0.00 in
21:21 62.7 °F 52.8 °F 29.98 in ESE 5.0 mph 8.0 mph 70% 0.00 in
21:26 62.7 °F 52.8 °F 29.98 in ESE 4.0 mph 7.0 mph 70% 0.00 in
21:31 62.6 °F 52.7 °F 29.97 in ESE 4.0 mph 6.0 mph 70% 0.00 in
21:36 62.5 °F 52.6 °F 29.98 in ESE 4.0 mph 6.0 mph 70% 0.00 in
21:41 62.3 °F 52.4 °F 29.97 in ESE 3.0 mph 4.0 mph 70% 0.00 in
21:46 62.0 °F 52.5 °F 29.97 in ESE 5.0 mph 5.0 mph 71% 0.00 in
21:51 62.0 °F 52.5 °F 29.97 in ESE 4.0 mph 5.0 mph 71% 0.00 in
21:56 62.1 °F 52.6 °F 29.97 in ESE 4.0 mph 9.0 mph 71% 0.00 in
21:58 62.1 °F 52.6 °F 29.97 in ESE 5.0 mph 9.0 mph 71% 0.00 in
22:03 62.0 °F 52.5 °F 29.96 in ESE 5.0 mph 6.0 mph 71% 0.00 in
22:08 62.0 °F 52.5 °F 29.97 in SE 5.0 mph 7.0 mph 71% 0.00 in
22:13 61.9 °F 52.4 °F 29.97 in ESE 5.0 mph 6.0 mph 71% 0.00 in
22:18 61.7 °F 52.6 °F 29.97 in ESE 5.0 mph 5.0 mph 72% 0.00 in
22:23 61.5 °F 52.4 °F 29.96 in ESE 5.0 mph 6.0 mph 72% 0.00 in
22:28 61.6 °F 52.5 °F 29.96 in ESE 7.0 mph 7.0 mph 72% 0.00 in
22:33 61.7 °F 52.6 °F 29.96 in ESE 4.0 mph 7.0 mph 72% 0.00 in
22:38 61.6 °F 52.9 °F 29.96 in ESE 4.0 mph 6.0 mph 73% 0.00 in
22:43 61.7 °F 53.0 °F 29.96 in ESE 4.0 mph 8.0 mph 73% 0.00 in
22:48 61.8 °F 52.7 °F 29.95 in ESE 6.0 mph 9.0 mph 72% 0.00 in
22:53 61.9 °F 52.8 °F 29.95 in ESE 7.0 mph 8.0 mph 72% 0.00 in
22:58 61.9 °F 53.2 °F 29.95 in East 4.0 mph 8.0 mph 73% 0.00 in
23:03 61.9 °F 53.2 °F 29.94 in East 5.0 mph 9.0 mph 73% 0.00 in
23:08 62.0 °F 53.3 °F 29.94 in East 5.0 mph 12.0 mph 73% 0.00 in
23:13 62.0 °F 53.3 °F 29.94 in ESE 7.0 mph 11.0 mph 73% 0.00 in
23:18 62.1 °F 53.3 °F 29.94 in ESE 8.0 mph 12.0 mph 73% 0.00 in
23:23 62.2 °F 53.5 °F 29.94 in ESE 7.0 mph 11.0 mph 73% 0.00 in
23:28 62.2 °F 53.5 °F 29.94 in ESE 8.0 mph 10.0 mph 73% 0.00 in
23:33 62.3 °F 53.5 °F 29.94 in ESE 9.0 mph 13.0 mph 73% 0.00 in
23:38 62.4 °F 53.6 °F 29.94 in ESE 7.0 mph 12.0 mph 73% 0.00 in
23:43 62.4 °F 54.0 °F 29.94 in SE 10.0 mph 12.0 mph 74% 0.00 in
23:48 62.5 °F 54.1 °F 29.94 in ESE 9.0 mph 13.0 mph 74% 0.00 in
23:53 62.6 °F 54.2 °F 29.94 in SE 10.0 mph 14.0 mph 74% 0.00 in
23:58 62.6 °F 54.2 °F 29.93 in ESE 14.0 mph 14.0 mph 74% 0.00 in
Compliments of Weather Underground